Location: Cueva de Ratón
(10.1013°N, 67.6606°W)
Time: 06:00:31
(UTC+00:00)

Cosmos 1371 Rocket - Pass Details

Date: 02 December 2023
Orbit: 753 x 787 km, 74.0° (Epoch: 03 March)

Event Time Altitude Azimuth Distance (km) Brightness Sun altitude
Rises 22:42:24 0° 194° (SSW) 3,195 7.8 -8.9°
Reaches altitude 10° 22:44:46 10° 195° (SSW) 2,273 7.0 -9.4°
Maximum altitude 22:49:55 82° 282° (WNW) 767 4.1 -10.6°
Drops below altitude 10° 22:55:06 10° 10° (N) 2,288 6.2 -11.8°
Sets 22:57:29 0° 11° (NNE) 3,218 6.9 -12.3°
